This is the latest recevied weather packets stored in our database for station/object OE2SWM. If no packets are shown the sender has not sent any weather packets the latest 10 day(s).
| Time | Temp. | Humidity | Pressure | Rain* | Wind** | Luminosity | Snow |
|---|---|---|---|---|---|---|---|
| 1777509600 | 1.67° C | 73% | 977 hPa | 0 mm | - | - | - |
| 1777509000 | 2.78° C | 73% | 976 hPa | 0 mm | - | - | - |
| 1777508400 | 2.78° C | 73% | 977 hPa | 0 mm | - | - | - |
| 1777507800 | 2.78° C | 73% | 976 hPa | 0 mm | - | - | - |
| 1777507200 | 2.78° C | 73% | 976 hPa | 0 mm | - | - | - |
| 1777506600 | 2.78° C | 72% | 976 hPa | 0 mm | - | - | - |
| 1777506000 | 2.78° C | 73% | 976 hPa | 0 mm | - | - | - |
| 1777505400 | 1.67° C | 76% | 976 hPa | 0 mm | - | - | - |
| 1777504800 | 0.56° C | 83% | 976 hPa | 0 mm | - | - | - |
| 1777504200 | 0° C | 85% | 976 hPa | 0 mm | - | - | - |
| 1777503600 | 0° C | 86% | 976 hPa | 0 mm | - | - | - |
| 1777503000 | 0.56° C | 84% | 976 hPa | 0 mm | - | - | - |
| 1777502400 | 0.56° C | 85% | 976 hPa | 0 mm | - | - | - |
| 1777501800 | 0.56° C | 82% | 976 hPa | 0 mm | - | - | - |
| 1777501200 | 0.56° C | 80% | 976 hPa | 0 mm | - | - | - |
| 1777500600 | 1.67° C | 81% | 976 hPa | 0 mm | - | - | - |
| 1777500000 | 1.67° C | 80% | 976 hPa | 0 mm | - | - | - |
| 1777499400 | 1.67° C | 81% | 976 hPa | 0 mm | - | - | - |
| 1777498800 | 1.67° C | 79% | 975 hPa | 0 mm | - | - | - |
| 1777498200 | 2.78° C | 79% | 975 hPa | 0 mm | - | - | - |
| 1777497600 | 2.78° C | 77% | 975 hPa | 0 mm | - | - | - |
| 1777497000 | 2.78° C | 77% | 975 hPa | 0 mm | - | - | - |
| 1777496400 | 3.89° C | 76% | 975 hPa | 0 mm | - | - | - |
| 1777495800 | 3.89° C | 74% | 975 hPa | 0 mm | - | - | - |
| 1777495200 | 3.89° C | 73% | 975 hPa | 0 mm | - | - | - |
* Rain latest hour (hover to see other rain measurements)
** Current wind speed in m/s (hover to see current wind gust speed)